Weather History for Orange, MA

Change the Weather History Date:

Thursday, February 21, 2013

  Actual Average Record
Temperature  
Mean Temperature 24 °F -  
Max Temperature 28 °F 34 °F 55 °F (1997)
Min Temperature 21 °F 15 °F 3 °F (2008)
Degree Days  
Heating Degree Days 40    
Moisture  
Dew Point 11 °F    
Average Humidity 56    
Maximum Humidity 72    
Minimum Humidity 47    
Precipitation  
Precipitation 0.00 in - - ()
Sea Level Pressure  
Sea Level Pressure 29.95 in    
Wind  
Wind Speed 13 mph (NW)    
Max Wind Speed 21 mph    
Max Gust Speed 33 mph    
Visibility 10 miles    
Events      
Averages and records for this station are not official NWS values.
T = Trace of Precipitation, MM = Missing Value Source: NWS Daily Summary

Daily Weather History Graph

Daily Weather History Graph

Search for Another Location

Airport:

Trip Planner

Search our weather history database for the weather conditions in past years. The results will help you decide how hot, cold, wet, or windy it might be!

Date:

Astronomy

Feb. 21, 2013 Rise Set
Actual Time 6:36 AM EST 5:29 PM EST
Civil Twilight 6:08 AM EST 5:57 PM EST
Nautical Twilight 5:35 AM EST 6:30 PM EST
Astronomical Twilight 5:03 AM EST 7:03 PM EST
Moon 1:38 PM EST 3:43 AM EST
Length of Visible Light 11h 49m
Length of Day
10h 52m
Waxing Gibbous, 83% of the Moon is Illuminated
Feb 21
Waxing Gibbous
Feb 25
Full
Mar 4
Last Quarter
Mar 11
New
Mar 19
First Quarter

Hourly Weather History & Observations

Time (EST) Temp. Windchill Dew Point Humidity Pressure Visibility Wind Dir Wind Speed Gust Speed Precip Events Conditions
12:52 AM 24.1 °F 15.2 °F 12.0 °F 60% 29.81 in 10.0 mi WNW 8.1 mph 17.3 mph N/A   Scattered Clouds
1:52 AM 24.1 °F 10.6 °F 10.9 °F 57% 29.81 in 10.0 mi WNW 17.3 mph 26.5 mph N/A   Mostly Cloudy
2:52 AM 24.1 °F 13.7 °F 10.9 °F 57% 29.81 in 10.0 mi West 10.4 mph 20.7 mph N/A   Overcast
3:52 AM 23.0 °F 11.7 °F 10.0 °F 58% 29.81 in 10.0 mi West 11.5 mph 19.6 mph N/A   Mostly Cloudy
4:52 AM 21.9 °F 9.2 °F 9.0 °F 58% 29.82 in 10.0 mi West 13.8 mph 27.6 mph N/A   Overcast
5:52 AM 21.9 °F 12.5 °F 8.1 °F 55% 29.84 in 10.0 mi WNW 8.1 mph 26.5 mph N/A   Clear
6:52 AM 21.0 °F 8.6 °F 7.0 °F 55% 29.85 in 10.0 mi WNW 12.7 mph 23.0 mph N/A   Clear
8:52 AM 21.9 °F 7.3 °F 8.1 °F 55% 29.86 in 10.0 mi WNW 18.4 mph 21.9 mph N/A   Partly Cloudy
9:52 AM 23.0 °F 8.0 °F 8.1 °F 53% 29.86 in 10.0 mi NW 20.7 mph 25.3 mph N/A   Scattered Clouds
10:52 AM 25.0 °F 14.2 °F 8.1 °F 49% 29.87 in 10.0 mi WNW 11.5 mph 23.0 mph N/A   Clear
11:52 AM 26.1 °F 14.0 °F 9.0 °F 49% 29.88 in 10.0 mi WNW 15.0 mph 23.0 mph N/A   Clear
12:52 PM 28.0 °F 18.6 °F 10.0 °F 47% 29.88 in 10.0 mi West 10.4 mph 18.4 mph N/A   Partly Cloudy
1:52 PM 28.9 °F 15.8 °F 10.9 °F 47% 29.89 in 10.0 mi NW 20.7 mph 27.6 mph N/A   Mostly Cloudy
2:52 PM 28.0 °F 14.9 °F 10.0 °F 47% 29.91 in 10.0 mi NW 19.6 mph 26.5 mph N/A   Mostly Cloudy
3:52 PM 28.0 °F 14.6 °F 10.9 °F 49% 29.95 in 10.0 mi NNW 20.7 mph 33.4 mph N/A   Partly Cloudy
4:52 PM 27.0 °F 13.5 °F 10.0 °F 49% 30.00 in 10.0 mi NNW 19.6 mph 29.9 mph N/A   Clear
5:52 PM 25.0 °F 13.6 °F 10.9 °F 55% 30.05 in 10.0 mi NNW 12.7 mph 24.2 mph N/A   Clear
6:52 PM 25.0 °F 11.7 °F 12.0 °F 58% 30.09 in 10.0 mi NNW 17.3 mph 29.9 mph N/A   Scattered Clouds
7:52 PM 24.1 °F 11.0 °F 12.9 °F 62% 30.12 in 10.0 mi North 16.1 mph 23.0 mph N/A   Clear
8:52 PM 24.1 °F 12.5 °F 14.0 °F 65% 30.16 in 10.0 mi NNW 12.7 mph - N/A   Clear
9:52 PM 23.0 °F 11.7 °F 14.0 °F 68% 30.19 in 10.0 mi NW 11.5 mph - N/A   Clear
10:52 PM 24.1 °F 11.0 °F 15.1 °F 69% 30.21 in 10.0 mi NNW 16.1 mph 24.2 mph N/A   Clear
11:52 PM 23.0 °F 14.7 °F 15.1 °F 72% 30.27 in 10.0 mi NNW 6.9 mph - N/A   Clear